FW7253 Weather Reports


time (UTC)temp
C
wind
direction
speed
KPH
gust
KPH
rain 1hr
cm
rain 24hr
cm
rain mn
cm
humidity
%
barometer
mb
20260901103533 16 124 1.6 6.4 0.00 0.00 0.00 83 1010.0
20260901103055 15 0 1.6 8.0 0.00 0.00 0.00 82 1010.1
20260901102532 16 228 3.2 8.0 0.00 0.00 0.00 82 1010.0
20260901102032 16 223 3.2 8.0 0.00 0.00 0.00 82 1009.9
20260901101606 16 134 1.6 8.0 0.00 0.00 0.00 83 1010.0
20260901101035 16 122 4.8 9.7 0.00 0.00 0.00 83 1010.0
20260901100531 15 220 3.2 9.7 0.00 0.00 0.00 83 1009.9
20260901100105 15 221 3.2 9.7 0.00 0.00 0.00 84 1009.8
20260901095533 15 327 3.2 6.4 0.00 0.00 0.00 85 1009.9
20260901095031 15 320 3.2 6.4 0.00 0.00 0.00 85 1009.9
20260901094549 15 318 0.0 4.8 0.00 0.00 0.00 86 1010.0
20260901094032 15 0 1.6 4.8 0.00 0.00 0.00 86 1010.0
20260901093531 15 239 3.2 4.8 0.00 0.00 0.00 86 1010.0
20260901093049 15 211 0.0 8.0 0.00 0.00 0.00 88 1010.0
20260901092536 14 232 3.2 8.0 0.00 0.00 0.00 88 1009.9
20260901092036 14 222 4.8 6.4 0.00 0.00 0.00 90 1010.0
20260901091547 14 0 1.6 4.8 0.00 0.00 0.00 91 1010.0
20260901091034 14 345 1.6 4.8 0.00 0.00 0.00 93 1009.9
20260901090535 14 314 1.6 4.8 0.00 0.00 0.00 94 1009.9
20260901090101 14 311 1.6 4.8 0.00 0.00 0.00 95 1009.9
20260901085532 13 0 0.0 4.8 0.00 0.00 0.00 95 1009.9
20260901085033 13 0 0.0 4.8 0.00 0.00 0.00 95 1009.9
20260901084559 13 353 1.6 4.8 0.00 0.00 0.00 96 1009.8
20260901084035 13 323 1.6 4.8 0.00 0.00 0.00 96 1009.9
20260901083537 13 318 1.6 3.2 0.00 0.00 0.00 96 1009.9
20260901083058 13 325 0.0 3.2 0.00 0.00 0.00 96 1009.8
20260901082534 13 0 0.0 4.8 0.00 0.00 0.00 96 1009.9
20260901082036 13 345 1.6 4.8 0.00 0.00 0.00 96 1009.8
20260901081556 13 307 1.6 4.8 0.00 0.00 0.00 96 1010.0
20260901081037 13 319 1.6 4.8 0.00 0.00 0.00 96 1009.9
20260901080531 13 296 3.2 4.8 0.00 0.00 0.00 96 1009.8
20260901080108 12 0 0.0 0.0 0.00 0.00 0.00 96 1009.9
20260901075535 12 0 0.0 0.0 0.00 0.00 0.00 96 1009.8
20260901075035 12 0 0.0 0.0 0.00 0.00 0.00 96 1009.8
20260901074600 12 0 0.0 0.0 0.00 0.00 0.00 96 1009.8
20260901074039 12 0 0.0 0.0 0.00 0.00 0.00 96 1009.9
20260901073535 12 0 0.0 0.0 0.00 0.00 0.00 96 1009.8
20260901073051 12 0 0.0 0.0 0.00 0.00 0.00 96 1009.7
20260901072535 12 0 0.0 0.0 0.00 0.00 0.00 96 1009.8
20260901072032 12 0 0.0 3.2 0.00 0.00 0.00 96 1009.7
20260901071546 12 0 0.0 4.8 0.00 0.00 0.00 96 1009.7
20260901071031 11 304 1.6 4.8 0.00 0.00 0.00 96 1009.7
20260901070538 11 0 0.0 4.8 0.00 0.00 0.00 96 1009.7
20260901070052 11 0 0.0 6.4 0.00 0.00 0.00 96 1009.5
20260901065535 11 26 1.6 9.7 0.00 0.00 0.00 96 1009.5
20260901065035 11 356 4.8 11.3 0.00 0.00 0.00 96 1009.5
20260901064549 11 354 6.4 11.3 0.00 0.00 0.00 96 1009.5
20260901064035 11 343 6.4 11.3 0.00 0.00 0.00 96 1009.5
20260901063534 11 347 6.4 11.3 0.00 0.00 0.00 96 1009.5
20260901063053 11 345 6.4 11.3 0.00 0.00 0.00 96 1009.5
20260901062531 11 336 4.8 9.7 0.00 0.00 0.00 96 1009.4
20260901062032 11 356 6.4 9.7 0.00 0.00 0.00 96 1009.4
20260901061548 11 340 6.4 11.3 0.00 0.00 0.00 96 1009.5
20260901061031 11 336 4.8 11.3 0.00 0.00 0.00 96 1009.4
20260901060532 11 6 6.4 11.3 0.00 0.00 0.00 96 1009.4
20260901060051 11 349 3.2 9.7 0.00 0.00 0.00 96 1009.3
20260901055531 11 341 4.8 9.7 0.00 0.00 0.00 96 1009.2
20260901055031 11 360 4.8 9.7 0.00 0.00 0.00 96 1009.2
20260901054546 11 359 6.4 9.7 0.00 0.00 0.00 96 1009.2
20260901054032 11 340 3.2 6.4 0.00 0.00 0.00 96 1009.2
20260901053534 11 345 4.8 6.4 0.00 0.00 0.00 96 1009.2
20260901053100 11 351 0.0 4.8 0.00 0.00 0.00 96 1009.1
20260901052533 10 313 0.0 4.8 0.00 0.00 0.00 96 1009.0
20260901052031 10 0 0.0 4.8 0.00 0.00 0.00 96 1009.0
20260901051551 10 352 0.0 3.2 0.00 0.00 0.00 96 1009.1
20260901051031 10 113 0.0 1.6 0.00 0.00 0.00 96 1008.9
20260901050531 10 0 0.0 3.2 0.00 0.00 0.00 96 1009.0
20260901050057 10 356 0.0 3.2 0.00 0.00 0.00 96 1009.0
20260901045531 10 359 0.0 3.2 0.00 0.00 0.00 96 1008.9
20260901045030 10 335 0.0 1.6 0.00 0.00 0.00 96 1009.0
20260901044552 10 0 0.0 1.6 0.00 0.00 0.00 96 1008.8
20260901044031 10 0 0.0 1.6 0.00 0.00 0.00 96 1008.8
20260901043532 10 0 0.0 3.2 0.00 0.00 0.00 96 1008.7
20260901043052 10 0 0.0 3.2 0.00 0.00 0.00 96 1008.6
20260901042532 10 0 0.0 4.8 0.00 0.00 0.00 96 1008.7
20260901042037 10 16 1.6 8.0 0.00 0.00 0.00 96 1008.6
20260901041613 10 79 1.6 8.0 0.00 0.00 0.00 96 1008.6
20260901041031 10 348 4.8 8.0 0.00 0.00 0.00 96 1008.6
20260901040535 9 17 0.0 4.8 0.00 0.00 0.00 96 1008.6
20260901040136 9 0 0.0 0.0 0.00 0.00 0.00 96 1008.6
20260901035536 9 0 0.0 0.0 0.00 0.00 0.00 96 1008.7
20260901035032 9 0 0.0 0.0 0.00 0.00 0.00 96 1008.7
20260901034550 9 0 0.0 0.0 0.00 0.00 0.00 96 1008.6
20260901034030 9 0 0.0 0.0 0.00 0.00 0.00 96 1008.7
20260901033533 8 0 0.0 0.0 0.00 0.00 0.00 96 1008.7
20260901033057 8 0 0.0 0.0 0.00 0.00 0.00 96 1008.5
20260901032531 8 0 0.0 0.0 0.00 0.00 0.00 96 1008.5
20260901032031 8 0 0.0 0.0 0.00 0.00 0.00 96 1008.6
20260901031551 8 0 0.0 0.0 0.00 0.00 0.00 96 1008.6
20260901031032 8 0 0.0 0.0 0.00 0.00 0.00 96 1008.5
20260901030533 8 0 0.0 0.0 0.00 0.00 0.00 96 1008.4
20260901030049 8 0 0.0 0.0 0.00 0.00 0.00 96 1008.4
20260901025531 8 0 0.0 0.0 0.00 0.00 0.00 96 1008.3
20260901025033 8 0 0.0 0.0 0.00 0.00 0.00 96 1008.3
20260901024549 8 0 0.0 0.0 0.00 0.00 0.00 96 1008.2
20260901024033 8 0 0.0 0.0 0.00 0.00 0.00 96 1008.2
20260901023530 8 0 0.0 0.0 0.00 0.00 0.00 96 1008.2
20260901023057 8 0 0.0 0.0 0.00 0.00 0.00 96 1008.1
20260901022531 8 0 0.0 0.0 0.00 0.00 0.00 96 1008.1
20260901022031 8 0 0.0 0.0 0.00 0.00 0.00 96 1008.1
20260901021551 8 0 0.0 0.0 0.00 0.00 0.00 96 1008.0
20260901021031 8 0 0.0 0.0 0.00 0.00 0.00 96 1007.9
20260901020532 8 0 0.0 0.0 0.00 0.00 0.00 96 1008.0
20260901020048 8 0 0.0 0.0 0.00 0.00 0.00 96 1008.0
20260901015530 8 0 0.0 0.0 0.00 0.00 0.00 96 1007.9
20260901015031 8 0 0.0 0.0 0.00 0.00 0.00 95 1007.8
20260901014555 8 0 0.0 0.0 0.00 0.00 0.00 95 1007.7
20260901014031 8 0 0.0 0.0 0.00 0.00 0.00 95 1007.8
20260901013530 8 0 0.0 0.0 0.00 0.00 0.00 95 1007.8
20260901013057 8 0 0.0 0.0 0.00 0.00 0.00 95 1007.8
20260901012531 8 0 0.0 0.0 0.00 0.00 0.00 95 1007.9
20260901012031 8 0 0.0 0.0 0.00 0.00 0.00 95 1007.7
20260901011547 8 0 0.0 0.0 0.00 0.00 0.00 95 1007.8
20260901011030 8 0 0.0 0.0 0.00 0.00 0.00 95 1007.7
20260901010534 8 0 0.0 0.0 0.00 0.00 0.00 95 1007.7
20260901010108 8 0 0.0 0.0 0.00 0.00 0.00 95 1007.7
20260901005530 8 0 0.0 0.0 0.00 0.00 0.00 95 1007.7
20260901005032 8 0 0.0 0.0 0.00 0.00 0.00 95 1007.7
20260901004550 8 0 0.0 0.0 0.00 0.00 0.00 95 1007.7
20260901004031 8 0 0.0 0.0 0.00 0.00 0.00 95 1007.7
20260901003531 8 0 0.0 0.0 0.00 0.00 0.00 95 1007.5
20260901003051 8 0 0.0 0.0 0.00 0.00 0.00 95 1007.7
20260901002531 9 0 0.0 0.0 0.00 0.00 0.00 95 1007.7
20260901002031 9 0 0.0 0.0 0.00 0.00 0.00 95 1007.6
20260901001547 9 0 0.0 0.0 0.00 0.00 0.00 95 1007.6
20260901001031 10 0 0.0 0.0 0.00 0.00 0.00 95 1007.7
20260901000534 10 0 0.0 0.0 0.00 0.00 0.00 95 1007.6
20260901000046 10 0 0.0 0.0 0.00 0.00 0.00 95 1007.7
20260831235534 10 0 0.0 0.0 0.00 0.00 0.00 95 1007.7
20260831235034 9 0 0.0 0.0 0.00 0.00 0.00 95 1007.7
20260831234553 9 0 0.0 0.0 0.00 0.00 0.00 95 1007.7
20260831234034 9 0 0.0 0.0 0.00 0.00 0.00 95 1007.7
20260831233539 9 0 0.0 0.0 0.00 0.00 0.00 95 1007.6
20260831233048 9 0 0.0 0.0 0.00 0.00 0.00 94 1007.7
20260831232534 10 0 0.0 0.0 0.00 0.00 0.00 95 1007.7
20260831232034 10 0 0.0 0.0 0.00 0.00 0.00 95 1007.6
20260831231545 10 0 0.0 0.0 0.00 0.00 0.00 95 1007.7
20260831231038 10 0 0.0 0.0 0.00 0.00 0.00 95 1007.8
20260831230534 10 0 0.0 0.0 0.00 0.00 0.00 94 1007.7
20260831230109 10 0 0.0 0.0 0.00 0.00 0.00 94 1007.8
20260831225535 10 0 0.0 0.0 0.00 0.00 0.00 94 1007.8
20260831225035 10 0 0.0 0.0 0.00 0.00 0.00 94 1007.7
20260831224547 10 0 0.0 0.0 0.00 0.00 0.00 94 1007.8
20260831224035 10 0 0.0 0.0 0.00 0.00 0.00 94 1007.7
20260831223534 10 0 0.0 0.0 0.00 0.00 0.00 94 1007.8
20260831223052 10 0 0.0 0.0 0.00 0.00 0.00 94 1007.7
20260831222535 10 0 0.0 0.0 0.00 0.00 0.00 94 1007.7
20260831222035 10 0 0.0 0.0 0.00 0.00 0.00 94 1007.8
20260831221557 10 0 0.0 0.0 0.00 0.00 0.00 94 1007.7
20260831221034 10 0 0.0 0.0 0.00 0.00 0.00 94 1007.7
20260831220535 11 0 0.0 0.0 0.00 0.00 0.00 93 1007.7
20260831220051 11 0 0.0 0.0 0.00 0.00 0.00 93 1007.7
20260831215537 11 0 0.0 0.0 0.00 0.00 0.00 93 1007.7
20260831215035 11 0 0.0 0.0 0.00 0.00 0.00 93 1007.6
20260831214607 11 0 0.0 0.0 0.00 0.00 0.00 93 1007.6
20260831214034 11 0 0.0 0.0 0.00 0.00 0.00 93 1007.5
20260831213534 11 0 0.0 0.0 0.00 0.00 0.00 93 1007.6
20260831213052 11 0 0.0 0.0 0.00 0.00 0.00 93 1007.4
20260831212532 11 0 0.0 0.0 0.00 0.00 0.00 93 1007.5
20260831212034 11 0 0.0 0.0 0.00 0.00 0.00 93 1007.4
20260831211549 11 0 0.0 0.0 0.00 0.00 0.00 92 1007.3
20260831211034 11 0 0.0 0.0 0.00 0.00 0.00 92 1007.4
20260831210530 11 0 0.0 0.0 0.00 0.00 0.00 92 1007.3
20260831210056 11 0 0.0 0.0 0.00 0.00 0.00 92 1007.3
20260831205623 12 0 0.0 0.0 0.00 0.00 0.00 92 1007.3
20260831205034 12 0 0.0 0.0 0.00 0.00 0.00 92 1007.3
20260831204558 12 0 0.0 0.0 0.00 0.00 0.00 92 1007.1
20260831204034 12 0 0.0 0.0 0.00 0.00 0.00 91 1007.2
20260831203536 12 0 0.0 0.0 0.00 0.00 0.00 91 1007.1
20260831203049 12 0 0.0 0.0 0.00 0.00 0.00 91 1007.1
20260831202535 12 0 0.0 0.0 0.00 0.00 0.00 91 1007.1
20260831202034 12 0 0.0 0.0 0.00 0.00 0.00 91 1007.1
20260831201557 12 0 0.0 0.0 0.00 0.00 0.00 91 1007.2
20260831201034 12 0 0.0 0.0 0.00 0.00 0.00 91 1007.2
20260831200535 12 0 0.0 0.0 0.00 0.00 0.00 91 1007.1
20260831200105 12 0 0.0 0.0 0.00 0.00 0.00 90 1007.1
20260831195534 12 0 0.0 0.0 0.00 0.00 0.00 90 1007.2
20260831195033 13 0 0.0 1.6 0.00 0.00 0.00 90 1007.2
20260831194627 13 0 0.0 1.6 0.00 0.00 0.00 90 1007.0
20260831194034 13 0 0.0 6.4 0.00 0.00 0.00 90 1007.1
20260831193535 13 0 0.0 6.4 0.00 0.00 0.00 90 1007.1
20260831193048 13 0 0.0 0.0 0.00 0.00 0.00 89 1007.0
20260831192534 13 0 0.0 0.0 0.00 0.00 0.00 89 1007.1
20260831192034 13 0 0.0 0.0 0.00 0.00 0.00 89 1007.0
20260831191556 13 0 0.0 0.0 0.00 0.00 0.00 88 1006.9
20260831191040 13 0 0.0 3.2 0.00 0.00 0.00 88 1006.8
20260831190535 13 0 0.0 3.2 0.00 0.00 0.00 88 1006.9
20260831185534 13 103 0.0 1.6 0.00 0.00 0.00 87 1006.7
20260831185034 14 0 0.0 1.6 0.00 0.00 0.00 87 1006.7
20260831184550 14 0 0.0 3.2 0.00 0.00 0.00 87 1006.7
20260831184030 14 0 0.0 3.2 0.00 0.00 0.00 87 1006.7
20260831183536 14 129 1.6 4.8 0.00 0.00 0.00 86 1006.7
20260831183106 14 0 0.0 4.8 0.00 0.00 0.00 86 1006.6
20260831182535 15 157 0.0 3.2 0.00 0.00 0.00 85 1006.5
20260831182035 15 149 0.0 3.2 0.00 0.00 0.00 85 1006.5
20260831181557 15 195 0.0 4.8 0.00 0.00 0.00 85 1006.4
20260831181034 15 186 0.0 4.8 0.00 0.00 0.00 84 1006.4
20260831180534 15 136 1.6 4.8 0.00 0.00 0.00 83 1006.3
20260831180111 15 155 1.6 6.4 0.00 0.00 0.00 83 1006.4
20260831175531 15 105 1.6 11.3 0.00 0.00 0.00 83 1006.3
20260831175034 15 172 1.6 12.9 0.00 0.00 0.00 82 1006.3
20260831174552 16 195 3.2 12.9 0.00 0.00 0.00 81 1006.3
20260831174034 16 178 4.8 12.9 0.00 0.00 0.00 80 1006.3
20260831173538 16 164 1.6 11.3 0.00 0.00 0.00 79 1006.3
20260831173046 16 150 4.8 11.3 0.00 0.00 0.00 78 1006.3
20260831172534 16 157 4.8 11.3 0.00 0.00 0.00 77 1006.1
20260831172034 17 215 3.2 11.3 0.00 0.00 0.00 77 1006.2
20260831171547 17 130 3.2 12.9 0.00 0.00 0.00 76 1006.2
20260831171032 17 153 3.2 12.9 0.00 0.00 0.00 74 1006.1
20260831170532 17 248 3.2 8.0 0.00 0.00 0.00 74 1006.1
20260831170052 17 198 3.2 12.9 0.00 0.00 0.00 73 1006.2
20260831165534 17 253 6.4 12.9 0.00 0.00 0.00 72 1006.1
20260831165032 17 203 3.2 12.9 0.00 0.00 0.00 72 1006.1
20260831164550 18 126 3.2 12.9 0.00 0.00 0.00 70 1006.0
20260831164035 18 143 4.8 12.9 0.00 0.00 0.00 69 1005.9
20260831163532 18 125 1.6 9.7 0.00 0.00 0.00 69 1006.0
20260831163049 18 95 3.2 11.3 0.00 0.00 0.00 68 1006.0
20260831162535 18 168 3.2 12.9 0.00 0.00 0.00 68 1005.9
20260831162033 18 178 8.0 12.9 0.00 0.00 0.00 68 1005.9
20260831161554 18 221 8.0 12.9 0.00 0.00 0.00 67 1005.9
20260831161031 18 194 6.4 11.3 0.00 0.00 0.00 67 1005.8
20260831160535 18 231 8.0 12.9 0.00 0.00 0.00 66 1005.8
20260831160050 18 162 8.0 14.5 0.00 0.00 0.00 65 1005.9
20260831155532 19 219 8.0 14.5 0.00 0.00 0.00 65 1005.8
20260831155035 19 220 4.8 12.9 0.00 0.00 0.00 66 1005.7
20260831154616 19 181 6.4 12.9 0.00 0.00 0.00 66 1005.8
20260831154034 19 149 4.8 16.1 0.00 0.00 0.00 65 1005.7
20260831153535 19 204 6.4 17.7 0.00 0.00 0.00 65 1005.7
20260831153058 19 147 8.0 17.7 0.00 0.00 0.00 66 1005.8
20260831152536 19 231 11.3 17.7 0.00 0.00 0.00 65 1005.8
20260831152032 20 72 4.8 17.7 0.00 0.00 0.00 65 1005.8
20260831151552 20 205 8.0 17.7 0.00 0.00 0.00 65 1005.7
20260831151033 20 223 6.4 17.7 0.00 0.00 0.00 63 1005.7
20260831150533 20 175 3.2 17.7 0.00 0.00 0.00 63 1005.5
20260831150058 20 180 6.4 16.1 0.00 0.00 0.00 61 1005.6
20260831145531 20 214 9.7 16.1 0.00 0.00 0.00 63 1005.5
20260831145031 20 167 9.7 16.1 0.00 0.00 0.00 62 1005.5
20260831144553 20 200 9.7 16.1 0.00 0.00 0.00 65 1005.5
20260831144032 20 207 8.0 17.7 0.00 0.00 0.00 65 1005.4
20260831143532 20 189 6.4 17.7 0.00 0.00 0.00 65 1005.5
20260831143049 20 206 8.0 17.7 0.00 0.00 0.00 64 1005.5
20260831142531 20 164 6.4 16.1 0.00 0.00 0.00 64 1005.4
20260831142031 20 217 9.7 16.1 0.00 0.00 0.00 64 1005.4
20260831141547 20 68 6.4 16.1 0.00 0.00 0.00 64 1005.4
20260831141033 20 169 8.0 14.5 0.00 0.00 0.00 64 1005.4
20260831140531 20 148 6.4 14.5 0.00 0.00 0.00 64 1005.4
20260831140053 20 110 4.8 14.5 0.00 0.00 0.00 66 1005.4
20260831135532 20 118 6.4 14.5 0.00 0.00 0.00 67 1005.4
20260831135032 20 121 4.8 16.1 0.00 0.00 0.00 68 1005.4
20260831134551 20 134 6.4 17.7 0.00 0.00 0.00 69 1005.4
20260831134032 20 94 8.0 20.9 0.00 0.00 0.00 67 1005.4
20260831133531 20 99 9.7 20.9 0.00 0.00 0.00 69 1005.4
20260831133049 20 147 8.0 17.7 0.00 0.00 0.00 68 1005.3
20260831132532 20 136 4.8 16.1 0.00 0.00 0.00 68 1005.3
20260831132032 20 119 6.4 16.1 0.00 0.00 0.00 66 1005.1
20260831131546 20 106 6.4 16.1 0.00 0.00 0.00 64 1005.1
20260831131035 21 156 4.8 12.9 0.00 0.00 0.00 65 1005.2
20260831130532 21 229 4.8 17.7 0.00 0.00 0.00 67 1005.0
20260831130101 20 92 8.0 17.7 0.00 0.00 0.00 67 1004.9
20260831125533 20 160 6.4 14.5 0.00 0.00 0.00 67 1005.1
20260831125032 20 103 8.0 16.1 0.00 0.00 0.00 68 1005.0
20260831124551 20 122 9.7 16.1 0.00 0.00 0.00 67 1005.1
20260831124034 20 110 4.8 16.1 0.00 0.00 0.00 67 1005.0
20260831123534 20 135 4.8 16.1 0.00 0.00 0.00 68 1005.0
20260831123047 20 64 4.8 11.3 0.00 0.00 0.00 69 1005.0
20260831122532 20 141 3.2 11.3 0.00 0.00 0.00 68 1005.1
20260831122034 20 98 6.4 11.3 0.00 0.00 0.00 69 1005.0
20260831121551 20 145 4.8 11.3 0.00 0.00 0.00 68 1005.0
20260831121034 20 110 3.2 11.3 0.00 0.00 0.00 69 1005.0
20260831120533 20 161 6.4 11.3 0.00 0.00 0.00 67 1005.0
20260831120051 20 110 3.2 8.0 0.00 0.00 0.00 67 1005.0
20260831115531 20 0 1.6 6.4 0.00 0.00 0.00 65 1004.9
20260831115031 20 196 1.6 4.8 0.00 0.00 0.00 67 1004.9
20260831114548 20 165 1.6 8.0 0.00 0.00 0.00 65 1005.0
20260831114034 20 162 3.2 11.3 0.00 0.00 0.00 65 1004.9
20260831113534 20 92 4.8 12.9 0.00 0.00 0.00 66 1004.9
20260831113054 20 127 6.4 12.9 0.00 0.00 0.00 68 1004.9
20260831112532 20 82 8.0 12.9 0.00 0.00 0.00 67 1004.8
20260831112039 20 123 1.6 9.7 0.00 0.00 0.00 63 1004.8
20260831111546 21 138 3.2 9.7 0.00 0.00 0.00 61 1004.7
20260831111031 21 107 4.8 9.7 0.00 0.00 0.00 60 1004.8
20260831110531 21 0 3.2 8.0 0.00 0.00 0.00 62 1004.7
20260831110051 20 329 3.2 8.0 0.00 0.00 0.00 62 1004.7
20260831105534 20 179 3.2 6.4 0.00 0.00 0.00 60 1004.7
20260831105032 20 219 1.6 6.4 0.00 0.00 0.00 63 1004.8
20260831104601 20 0 1.6 12.9 0.00 0.00 0.00 63 1004.9
20260831104032 20 48 3.2 12.9 0.00 0.00 0.00 60 1004.8